Temperature
12 12 12 12 11 11 11 11 11 11 11 10 10 10 10 10 10 10 10 10 10 9 9 9 9 9 9 9 9 9 9 9 9 9 9 9 9 10 10 10 10 10 10
12 12 11 11 11 11 11 11 10 10 10 10 10 10 10 10 10 10 10 10 9 9 9 9 9 9 9 9 9 9 9 9 9 9 9 9 9 9 9 9 9 9 10
12 11 11 11 11 11 10 10 10 10 10 10 10 10 10 10 10 10 9 9 9 9 9 9 9 9 9 9 9 9 9 9 9 8 9 9 9 9 9 9 9 9 9
11 11 11 11 11 10 10 10 10 10 10 10 10 10 10 10 9 9 9 9 9 9 9 9 9 9 9 9 9 9 9 9 9 8 8 8 9 9 9 9 9 9 9
11 11 11 10 10 10 10 10 10 10 10 10 9 9 9 9 9 9 9 9 9 9 9 9 9 9 9 9 9 9 9 9 8 8 8 8 8 8 8 9 9 9 9
11 10 10 10 10 10 10 10 10 10 10 9 9 9 9 9 9 9 9 9 9 9 9 9 9 9 9 9 9 8 8 8 8 8 8 8 8 8 8 8 8 8 8
11 10 10 10 10 10 10 10 10 10 10 9 9 9 9 9 9 9 9 9 9 9 9 9 9 9 9 9 8 8 8 8 8 8 8 8 8 8 8 8 8 8 8
10 10 10 10 10 10 10 10 10 10 9 9 9 9 9 9 9 9 9 9 9 9 9 9 9 9 9 8 8 8 8 8 8 8 8 8 8 8 8 8 8 8 8
10 10 10 10 10 10 10 10 10 10 9 9 9 9 9 9 9 9 9 9 9 9 9 9 9 9 8 8 8 8 8 8 8 8 8 8 8 8 8 8 8 8 8
10 10 10 10 10 10 10 10 10 9 9 9 9 9 9 9 9 9 9 9 9 9 9 9 9 9 8 8 8 8 8 8 8 8 8 9 8 8 8 8 8 8 8
10 10 10 10 10 10 10 10 9 9 9 9 9 9 9 9 9 9 9 9 9 9 9 9 9 9 9 8 8 8 8 8 8 9 9 9 9 8 8 8 8 8 8
10 10 10 10 10 10 10 10 10 10 10 9 9 9 9 9 9 9 9 9 9 9 9 9 9 8 8 9 9 9 9 9 9 9 9 9 9 9 9 9 9 8 8
10 10 10 10 10 10 10 10 10 10 10 10 9 9 9 9 9 9 9 9 9 9 9 9 9 9 9 9 9 9 9 9 9 9 9 9 9 9 9 9 9 9 9
10 10 10 10 10 10 10 10 10 10 10 10 10 9 9 9 9 9 9 9 9 9 9 9 9 9 9 9 9 9 9 9 9 9 9 9 9 9 9 9 9 9 9
10 10 10 10 10 10 10 10 10 10 10 10 10 10 10 10 10 9 9 9 9 9 9 9 9 9 9 9 9 9 9 9 9 9 9 9 9 9 9 9 9 9 9
10 10 10 10 10 10 10 10 10 10 10 10 10 10 10 10 10 10 10 10 9 9 9 9 9 9 9 9 9 9 9 9 9 9 9 9 9 9 9 9 9 9 9
10 10 10 10 10 10 10 10 10 10 10 10 10 10 10 10 10 10 10 10 10 10 9 9 9 9 9 9 9 9 9 9 9 9 9 9 9 9 9 9 9 9 9
10 10 11 10 10 10 10 10 10 10 10 10 10 10 10 10 10 10 10 10 10 10 10 9 9 9 9 9 9 9 9 9 9 9 9 9 9 9 9 9 9 9 9
11 11 11 11 10 10 10 10 10 10 10 10 10 11 10 10 10 10 10 10 10 10 10 9 9 9 9 9 9 9 9 9 9 9 9 9 9 9 9 9 9 8 8
11 11 11 11 11 11 11 11 11 11 11 11 11 10 10 10 10 10 10 10 10 10 10 9 9 9 9 9 9 9 9 9 9 8 8 8 8 8 8 8 8 8 8
11 11 11 11 11 11 11 11 11 11 10 10 10 10 10 10 10 10 10 10 10 10 9 9 9 9 9 8 8 8 8 8 8 8 8 8 8 8 8 8 8 8 8
11 11 11 11 11 11 11 10 10 10 10 10 10 10 10 10 10 10 10 10 10 9 9 9 9 9 8 8 8 8 8 8 8 8 8 8 8 8 8 8 7 8 8
11 11 11 11 11 11 11 11 10 11 11 11 11 10 10 10 10 10 10 10 9 9 9 9 9 8 8 8 8 8 8 8 8 7 7 7 7 7 7 7 7 7 7
11 11 11 11 11 11 11 11 11 11 11 11 11 11 10 10 10 10 10 9 9 9 9 9 8 8 8 8 7 7 7 7 7 7 7 7 7 7 7 7 7 7 7
11 11 11 11 11 11 11 11 11 11 11 11 11 10 10 10 10 10 9 9 9 9 9 8 8 8 7 7 7 7 7 7 7 7 7 6 6 6 6 6 6 6 6
11 11 11 11 11 11 11 11 11 11 11 10 10 10 10 10 10 9 9 9 8 8 8 8 8 7 7 7 7 7 7 6 6 6 6 6 6 6 6 6 6 6 6
Wind_Speed
0 0 1 1 1 1 1 2 2 2 2 2 1 1 1 1 1 0 1 1 1 2 2 2 3 3 2 2 2 2 2 2 4 4 3 3 3 4 3 3 4 4 4
0 0 1 1 2 2 2 3 2 2 2 2 1 1 1 1 1 1 2 2 2 2 3 3 3 2 3 2 2 2 3 3 4 5 4 3 3 3 4 3 3 3 4
0 0 1 1 2 2 3 3 2 2 2 2 2 2 2 2 2 2 2 2 2 3 3 3 4 3 4 3 3 3 3 3 3 4 4 3 3 3 3 3 3 3 3
1 1 1 1 2 2 3 2 2 2 2 2 2 3 3 3 3 2 2 2 2 3 3 3 4 4 4 4 3 3 3 3 3 3 4 3 3 3 2 3 3 2 3
1 1 2 2 2 2 2 2 2 2 2 2 2 3 4 3 3 2 2 2 2 3 3 3 4 4 5 4 4 4 3 3 3 3 3 3 4 3 3 2 3 3 3
1 2 2 1 1 2 2 2 2 2 2 2 2 3 4 4 4 4 2 2 2 2 3 4 4 4 5 5 5 5 5 4 4 3 3 4 5 4 3 3 3 2 2
1 1 1 1 1 2 2 2 2 2 2 3 3 3 3 4 5 4 3 1 1 2 3 3 4 4 4 4 5 5 4 5 6 5 5 5 5 4 3 3 3 3 4
1 1 1 1 2 2 2 2 2 2 2 2 3 3 3 4 5 4 4 2 1 2 3 3 4 5 5 4 4 4 4 4 4 5 6 7 6 5 5 4 3 3 3
1 1 1 1 1 1 2 2 2 2 2 3 2 3 3 5 6 5 4 2 2 4 4 3 3 4 6 4 3 4 6 6 5 5 7 8 9 9 6 3 3 2 3
2 2 2 1 1 1 2 2 1 1 2 3 3 3 3 4 6 6 4 2 3 4 4 4 4 5 6 4 3 3 5 7 6 6 5 5 5 6 8 7 5 4 3
2 1 1 1 1 1 1 1 1 2 2 3 3 4 4 4 6 6 5 2 3 4 4 4 5 6 7 7 4 4 7 7 6 6 5 5 4 3 4 5 6 6 5
1 0 1 1 1 1 1 2 2 2 2 3 4 5 4 4 5 6 6 4 4 3 4 5 6 9 9 9 6 7 8 6 4 4 4 4 4 4 4 4 6 8 8
1 0 1 2 2 1 1 2 2 2 2 3 3 4 5 5 5 6 6 7 5 3 5 8 9 11 10 8 8 9 6 4 3 4 5 5 4 5 4 4 4 5 7
1 1 1 1 2 2 1 2 2 3 3 3 3 4 5 5 5 4 4 4 5 4 5 7 9 8 6 7 7 6 4 4 4 5 5 5 4 4 3 3 3 3 3
1 1 1 1 2 2 3 2 3 4 4 5 5 4 5 6 7 7 5 5 5 5 5 4 4 4 5 5 5 5 4 4 4 4 4 5 5 4 4 3 3 3 3
1 1 1 1 2 2 3 4 5 5 7 8 9 8 7 9 11 12 10 9 9 7 3 4 5 5 6 6 7 6 5 5 4 5 5 5 5 5 5 4 3 4 5
3 2 1 1 2 2 2 3 5 7 7 6 7 8 9 10 11 10 10 9 7 3 2 5 6 6 6 6 6 6 5 6 5 5 5 5 5 5 5 5 4 4 5
3 3 3 2 2 2 3 3 3 4 6 7 7 9 9 9 10 10 8 5 4 2 3 5 6 7 6 6 6 6 6 6 5 5 5 5 5 5 5 5 4 5 5
3 2 2 2 2 2 3 3 3 4 5 6 6 8 8 8 7 7 3 2 4 5 5 6 6 6 6 6 6 6 6 6 6 5 5 5 5 5 5 5 5 6 5
3 4 3 2 2 3 3 3 4 5 5 5 6 6 6 5 5 5 3 3 4 5 6 6 6 6 6 6 5 5 5 5 5 5 5 5 5 5 6 6 6 5 5
3 2 2 2 2 3 3 4 4 5 5 6 6 7 7 5 6 7 6 5 5 6 6 6 6 6 5 5 5 5 6 5 5 5 5 5 6 6 6 5 5 5 6
2 2 2 2 2 3 4 4 4 5 6 7 7 7 7 4 5 6 6 6 5 5 5 5 5 5 5 5 5 5 5 6 6 6 6 6 6 6 6 5 5 5 6
2 2 2 2 2 3 4 4 5 5 6 6 6 6 6 5 5 6 6 6 5 5 4 4 4 5 5 4 4 4 5 6 6 6 6 6 6 6 5 6 6 6 6
3 3 2 2 2 3 4 5 5 6 6 6 6 6 6 5 6 6 6 6 5 5 5 4 4 5 6 5 4 4 5 6 7 6 7 7 7 6 6 6 6 6 6
3 2 2 2 3 4 4 5 5 6 6 5 5 5 6 6 6 6 5 5 6 5 5 5 4 4 6 6 6 6 8 9 8 7 6 5 6 7 7 7 6 7 6
3 3 3 3 3 4 4 5 5 5 5 5 5 5 6 6 6 5 5 5 5 5 5 5 6 6 7 6 8 9 9 9 9 8 6 5 6 6 7 6 8 6 6
Wind_Direction
93 81 56 10 344 335 319 312 315 317 316 298 290 309 314 317 316 302 287 293 301 302 301 296 297 296 290 282 260 247 245 240 261 283 281 286 280 280 292 294 291 279 275
204 91 16 356 347 341 323 316 322 320 319 313 311 309 301 305 293 270 283 292 288 295 299 300 295 299 298 286 262 255 257 247 249 276 288 286 275 271 277 282 286 280 276
147 102 356 331 333 321 313 319 326 329 331 333 325 299 296 299 290 274 267 283 286 285 288 287 288 291 290 287 273 265 268 271 257 264 281 287 282 278 283 288 284 277 280
170 201 264 292 299 298 306 317 319 321 320 319 315 304 295 291 285 276 271 284 294 295 290 285 285 276 271 276 280 273 270 277 277 268 275 285 285 286 275 278 285 277 276
206 247 260 274 298 312 314 320 326 327 315 311 314 313 306 301 287 277 275 280 283 299 309 305 295 288 276 271 269 270 269 270 279 277 277 287 287 283 270 266 267 280 276
216 251 262 277 315 315 312 326 340 335 330 331 317 313 314 318 313 312 297 284 288 294 305 312 308 305 308 301 284 270 253 247 255 263 270 272 278 272 264 260 262 268 273
231 258 276 300 314 310 313 336 328 324 333 332 324 325 324 325 327 328 330 310 299 300 299 306 313 313 315 313 312 313 296 261 242 243 258 262 266 261 256 257 246 249 257
214 268 290 300 307 319 335 329 321 325 325 320 318 322 326 325 334 337 340 346 317 302 291 284 294 306 314 312 315 318 313 299 275 250 250 258 258 256 245 246 250 257 266
232 259 263 250 275 310 318 309 315 332 325 319 316 325 327 323 330 332 338 334 319 312 305 299 291 296 304 313 316 314 314 309 301 274 259 263 259 251 236 231 227 230 258
241 253 259 251 256 279 283 291 307 308 306 319 327 317 310 308 313 323 330 320 312 309 313 309 296 294 304 308 293 296 302 300 310 314 305 294 274 258 235 224 221 222 237
238 248 273 282 277 272 296 301 301 316 328 329 322 317 314 304 308 315 320 306 290 302 309 309 308 310 305 302 287 268 268 280 294 295 297 298 292 266 243 228 222 220 227
175 231 296 311 308 311 310 311 315 331 333 323 322 322 321 315 305 306 309 300 282 280 290 296 298 307 308 302 292 278 277 281 280 285 289 290 290 286 270 247 232 228 232
126 269 302 319 324 320 299 301 315 322 310 308 311 310 311 311 305 298 298 301 304 287 285 286 293 299 303 299 289 289 289 282 275 275 281 281 276 277 281 277 253 237 239
170 288 312 327 327 335 324 295 293 294 293 296 299 300 303 306 304 306 307 308 309 306 303 303 302 297 293 282 291 296 282 266 262 269 274 278 282 279 275 269 265 258 256
192 271 316 328 318 327 324 297 278 268 248 252 270 271 281 294 290 287 290 299 302 301 310 306 309 315 320 315 307 299 291 284 271 265 267 277 280 280 277 265 257 253 248
181 255 274 298 312 317 321 323 303 272 279 261 248 251 264 263 277 290 295 291 292 293 295 292 301 304 304 305 306 306 297 288 282 277 276 273 276 278 281 274 256 254 259
198 225 246 268 283 296 303 310 318 323 320 304 284 274 267 279 287 292 300 306 302 286 269 286 293 297 298 300 297 292 291 294 293 287 283 280 275 276 275 273 266 258 258
208 226 228 248 262 274 282 288 291 304 317 322 317 306 299 294 293 294 298 311 312 294 274 284 290 292 293 295 296 296 295 300 301 300 297 295 285 279 277 270 264 262 265
210 230 235 249 262 272 284 293 295 293 293 300 311 317 315 308 301 302 300 282 295 301 297 291 289 292 294 294 297 300 299 300 302 302 301 299 296 290 287 280 273 262 259
227 239 237 251 278 291 296 299 303 305 307 309 310 309 319 329 328 327 319 292 288 289 292 294 296 297 298 299 301 302 303 303 307 305 302 302 299 293 288 287 283 275 268
232 251 254 260 274 282 292 301 304 307 309 310 306 305 308 311 310 310 309 301 295 295 300 303 305 308 308 307 309 312 311 309 310 307 303 303 304 300 295 289 286 282 278
218 238 249 263 282 293 300 302 304 305 307 308 310 313 316 311 308 309 309 308 306 300 300 299 302 308 312 314 315 316 315 313 313 312 309 306 304 300 298 296 292 287 284
207 222 244 265 279 301 309 308 307 307 308 308 306 309 315 316 313 311 310 310 312 312 312 307 308 317 323 323 326 323 317 312 310 308 307 306 306 304 299 294 294 297 288
201 220 243 269 285 294 297 301 305 306 306 307 309 310 312 313 314 315 316 318 321 323 328 330 328 332 335 336 334 330 325 319 314 305 302 300 301 302 300 294 291 291 289
199 217 234 250 268 281 290 298 303 304 308 310 312 314 315 316 317 319 321 323 326 330 337 342 339 338 339 338 337 333 328 323 318 314 305 298 299 301 303 300 297 295 291
211 226 242 256 267 276 285 295 303 309 313 314 316 317 318 320 322 325 330 335 335 336 338 340 343 345 343 340 337 333 330 329 329 324 314 307 307 308 312 304 302 300 299
Height
1501 1501 1501 1501 1501 1501 1500 1500 1499 1498 1497 1496 1495 1494 1494 1493 1492 1491 1491 1490 1489 1488 1488 1487 1486 1485 1484 1483 1483 1482 1481 1480 1478 1476 1476 1475 1474 1474 1473 1473 1472 1472 1472
1501 1501 1501 1500 1500 1500 1499 1499 1498 1497 1496 1495 1494 1493 1492 1491 1491 1490 1489 1489 1488 1487 1486 1485 1484 1483 1482 1481 1480 1479 1478 1477 1476 1473 1472 1471 1471 1470 1470 1469 1469 1468 1468
1500 1500 1500 1499 1499 1499 1498 1497 1496 1496 1495 1494 1493 1492 1491 1490 1489 1488 1488 1487 1486 1485 1484 1483 1482 1481 1480 1479 1477 1476 1475 1474 1473 1471 1469 1468 1468 1467 1467 1466 1466 1465 1465
1499 1499 1499 1499 1498 1498 1497 1496 1495 1495 1494 1493 1492 1491 1490 1489 1488 1487 1486 1485 1484 1483 1482 1481 1480 1479 1477 1476 1475 1474 1472 1471 1470 1468 1467 1466 1465 1464 1463 1463 1462 1462 1462
1497 1498 1498 1498 1498 1497 1496 1495 1494 1494 1493 1492 1491 1490 1489 1488 1487 1486 1484 1483 1482 1481 1480 1479 1478 1477 1475 1474 1473 1471 1470 1468 1467 1465 1464 1463 1462 1461 1461 1460 1459 1459 1459
1497 1497 1497 1497 1496 1496 1495 1494 1493 1493 1492 1491 1490 1489 1488 1487 1485 1484 1483 1482 1481 1480 1478 1477 1476 1475 1473 1472 1471 1469 1468 1466 1464 1463 1462 1461 1459 1459 1458 1457 1457 1457 1457
1496 1496 1496 1496 1496 1495 1494 1494 1493 1492 1491 1490 1489 1488 1486 1485 1484 1483 1482 1480 1479 1478 1477 1476 1475 1473 1472 1470 1468 1467 1466 1464 1463 1462 1460 1458 1457 1456 1455 1455 1454 1454 1454
1495 1495 1495 1496 1495 1495 1494 1493 1492 1491 1490 1489 1488 1487 1485 1484 1483 1482 1480 1479 1478 1477 1476 1474 1473 1471 1470 1468 1466 1465 1463 1462 1461 1459 1457 1456 1455 1454 1453 1453 1452 1451 1451
1495 1495 1495 1496 1495 1494 1494 1493 1492 1491 1490 1489 1487 1486 1485 1483 1482 1481 1480 1478 1477 1475 1474 1473 1471 1470 1468 1467 1465 1463 1461 1460 1458 1457 1455 1454 1452 1451 1450 1450 1449 1449 1448
1495 1495 1495 1495 1495 1494 1493 1493 1492 1490 1489 1488 1487 1486 1484 1482 1481 1480 1479 1477 1475 1474 1472 1471 1469 1468 1466 1465 1463 1461 1459 1457 1456 1454 1453 1451 1450 1449 1448 1447 1446 1446 1446
1495 1495 1495 1495 1494 1494 1493 1493 1492 1490 1489 1488 1486 1485 1483 1482 1480 1479 1478 1476 1474 1472 1470 1469 1468 1466 1464 1463 1461 1459 1457 1455 1454 1452 1450 1449 1448 1446 1445 1444 1443 1443 1443
1495 1495 1495 1495 1494 1494 1494 1493 1492 1490 1489 1487 1486 1484 1483 1481 1479 1478 1476 1475 1473 1471 1469 1467 1466 1464 1462 1461 1459 1457 1456 1454 1452 1450 1448 1447 1445 1444 1443 1442 1441 1440 1439
1495 1495 1495 1495 1495 1494 1493 1492 1491 1490 1488 1487 1485 1483 1482 1480 1478 1477 1475 1473 1471 1469 1467 1465 1464 1462 1460 1458 1457 1455 1453 1451 1449 1447 1445 1444 1442 1441 1440 1439 1438 1437 1436
1494 1494 1495 1495 1495 1494 1493 1492 1491 1489 1488 1486 1485 1483 1481 1479 1477 1475 1474 1472 1470 1468 1465 1464 1462 1460 1458 1456 1454 1453 1451 1449 1447 1445 1443 1441 1440 1438 1437 1436 1434 1433 1433
1494 1494 1494 1495 1494 1494 1493 1492 1491 1489 1488 1486 1484 1482 1480 1478 1476 1474 1472 1470 1468 1466 1463 1461 1459 1457 1456 1454 1452 1450 1448 1446 1444 1442 1440 1439 1437 1435 1434 1433 1431 1430 1429
1494 1494 1494 1494 1494 1493 1492 1491 1490 1489 1488 1486 1484 1482 1479 1477 1475 1473 1470 1468 1466 1464 1461 1459 1457 1455 1453 1451 1449 1447 1445 1443 1442 1440 1438 1436 1434 1432 1431 1429 1428 1426 1425
1494 1494 1494 1494 1494 1493 1492 1491 1489 1488 1487 1485 1483 1480 1478 1476 1473 1471 1469 1467 1464 1462 1459 1457 1455 1453 1450 1448 1446 1444 1442 1441 1439 1437 1435 1432 1430 1429 1427 1425 1424 1423 1422
1494 1494 1494 1494 1493 1493 1492 1491 1489 1487 1485 1483 1482 1479 1477 1474 1472 1469 1467 1465 1462 1460 1457 1455 1453 1450 1448 1446 1444 1442 1440 1438 1436 1434 1432 1429 1427 1425 1423 1421 1420 1419 1418
1493 1493 1494 1493 1493 1492 1491 1490 1489 1487 1484 1482 1479 1478 1475 1473 1470 1468 1465 1463 1460 1458 1455 1453 1451 1448 1446 1443 1441 1439 1437 1435 1433 1431 1429 1426 1424 1422 1420 1418 1416 1415 1414
1493 1493 1493 1493 1492 1491 1490 1489 1487 1485 1483 1481 1478 1476 1473 1471 1468 1465 1463 1460 1458 1456 1453 1450 1448 1446 1443 1441 1439 1437 1434 1432 1430 1427 1425 1423 1421 1418 1416 1414 1412 1411 1410
1492 1492 1492 1492 1491 1490 1489 1488 1486 1484 1482 1479 1477 1474 1472 1469 1466 1464 1461 1458 1456 1453 1450 1448 1446 1443 1441 1439 1436 1434 1432 1429 1427 1424 1422 1419 1417 1414 1412 1410 1408 1407 1406
1491 1491 1491 1490 1490 1489 1488 1486 1485 1483 1480 1478 1475 1473 1470 1468 1465 1462 1459 1456 1454 1451 1448 1446 1443 1441 1438 1436 1434 1431 1429 1426 1424 1421 1418 1416 1413 1411 1408 1406 1404 1403 1401
1490 1489 1489 1489 1489 1488 1486 1485 1483 1481 1479 1477 1474 1471 1468 1466 1463 1460 1457 1454 1451 1449 1446 1443 1441 1438 1436 1433 1431 1428 1426 1423 1420 1417 1414 1412 1409 1406 1404 1402 1400 1398 1397
1488 1488 1488 1488 1487 1486 1485 1483 1482 1480 1477 1475 1472 1470 1467 1464 1461 1458 1455 1453 1450 1447 1444 1441 1438 1436 1433 1430 1428 1425 1422 1419 1416 1414 1411 1408 1405 1402 1400 1398 1396 1394 1392
1487 1487 1487 1486 1486 1484 1483 1481 1480 1478 1476 1473 1471 1468 1465 1462 1459 1456 1454 1451 1448 1445 1442 1439 1436 1433 1430 1428 1425 1422 1419 1416 1413 1410 1407 1404 1401 1399 1396 1394 1392 1390 1389
1486 1486 1485 1485 1484 1483 1481 1480 1478 1476 1474 1472 1469 1466 1463 1460 1458 1455 1452 1449 1446 1443 1440 1437 1434 1431 1428 1425 1422 1419 1416 1413 1410 1407 1404 1401 1398 1395 1393 1391 1389 1387 1385